Météo par heure à Jaunde

Ce jour, 14 Mai, Vendredi

Heure Température Précipitation Vent Pression Humidité
00:00 +18°C° 0 mm 0 m/s 697 mmHg 96%
01:00 +18°C° 0 mm 0 m/s 697 mmHg 95%
02:00 +18°C° 0 mm 0 m/s 697 mmHg 96%
03:00 +18°C° 0 mm 0 m/s 697 mmHg 96%
04:00 +18°C° 0 mm 0 m/s 697 mmHg 97%
05:00 +19°C° 0 mm 0 m/s 697 mmHg 96%
06:00 +19°C° 0 mm 0 m/s 697 mmHg 95%
07:00 +19°C° 0 mm 0 m/s 698 mmHg 95%
08:00 +21°C° 0 mm 0 m/s 698 mmHg 88%
09:00 +23°C° 0 mm 0 m/s 699 mmHg 81%
10:00 +24°C° 0 mm 0 m/s 699 mmHg 74%
11:00 +25°C° 0 mm 0 m/s 698 mmHg 69%
12:00 +27°C° 0 mm 0 m/s 698 mmHg 64%
13:00 +30°C° 0 mm 1 m/s 697 mmHg 59%
14:00 +29°C° 0.3 mm 1 m/s 697 mmHg 65%
15:00 +29°C° 0.3 mm 1 m/s 696 mmHg 71%
16:00 +28°C° 0.3 mm 1 m/s 695 mmHg 77%
17:00 +26°C° 0.3 mm 1 m/s 695 mmHg 82%
18:00 +25°C° 0.3 mm 1 m/s 695 mmHg 86%
19:00 +24°C° 0.3 mm 1 m/s 696 mmHg 91%
20:00 +23°C° 0 mm 1 m/s 696 mmHg 93%
21:00 +23°C° 0 mm 1 m/s 697 mmHg 94%
22:00 +20°C° 0 mm 0 m/s 697 mmHg 96%
23:00 +20°C° 0.6 mm 0 m/s 697 mmHg 97%

Demain, 15 Mai, Samedi

Heure Température Précipitation Vent Pression Humidité
00:00 +20°C° 0.6 mm 0 m/s 697 mmHg 98%
01:00 +19°C° 0.6 mm 0 m/s 697 mmHg 99%
02:00 +19°C° 0.5 mm 0 m/s 696 mmHg 99%
03:00 +19°C° 0.5 mm 0 m/s 696 mmHg 99%
04:00 +19°C° 0.5 mm 0 m/s 696 mmHg 99%
05:00 +20°C° 0 mm 0 m/s 696 mmHg 99%
06:00 +20°C° 0 mm 0 m/s 697 mmHg 98%
07:00 +20°C° 0 mm 0 m/s 697 mmHg 98%
08:00 +22°C° 0.1 mm 0 m/s 698 mmHg 91%
09:00 +24°C° 0.1 mm 0 m/s 698 mmHg 83%
10:00 +27°C° 0.1 mm 1 m/s 699 mmHg 75%
11:00 +27°C° 1.3 mm 1 m/s 698 mmHg 78%
12:00 +26°C° 1.3 mm 0 m/s 698 mmHg 81%
13:00 +26°C° 1.3 mm 0 m/s 697 mmHg 85%
14:00 +25°C° 0.9 mm 0 m/s 697 mmHg 86%
15:00 +25°C° 0.9 mm 0 m/s 696 mmHg 88%
16:00 +24°C° 0.9 mm 0 m/s 695 mmHg 90%
17:00 +23°C° 0.6 mm 0 m/s 696 mmHg 92%
18:00 +22°C° 0.6 mm 0 m/s 696 mmHg 95%
19:00 +23°C° 0.6 mm 1 m/s 696 mmHg 98%
20:00 +23°C° 0.4 mm 1 m/s 696 mmHg 98%
21:00 +23°C° 0.4 mm 1 m/s 697 mmHg 98%
22:00 +22°C° 0.4 mm 1 m/s 697 mmHg 98%
23:00 +20°C° 0.9 mm 0 m/s 697 mmHg 99%

Après-demain, 16 Mai, Dimanche

Heure Température Précipitation Vent Pression Humidité
00:00 +20°C° 0.9 mm 0 m/s 697 mmHg 99%
01:00 +20°C° 0.9 mm 0 m/s 697 mmHg 99%
02:00 +20°C° 0.9 mm 0 m/s 697 mmHg 99%
03:00 +20°C° 0.9 mm 0 m/s 696 mmHg 99%
04:00 +20°C° 0.9 mm 0 m/s 696 mmHg 99%
05:00 +20°C° 1.7 mm 0 m/s 697 mmHg 99%
06:00 +20°C° 1.7 mm 0 m/s 697 mmHg 99%
07:00 +20°C° 1.7 mm 0 m/s 697 mmHg 99%
08:00 +20°C° 0.4 mm 0 m/s 698 mmHg 99%
09:00 +21°C° 0.4 mm 0 m/s 698 mmHg 98%
10:00 +21°C° 0.4 mm 0 m/s 699 mmHg 98%
11:00 +22°C° 0.2 mm 0 m/s 698 mmHg 92%
12:00 +25°C° 0.2 mm 1 m/s 698 mmHg 86%
13:00 +26°C° 0.2 mm 1 m/s 697 mmHg 79%
14:00 +26°C° 0.1 mm 1 m/s 697 mmHg 78%
15:00 +24°C° 0.1 mm 0 m/s 696 mmHg 76%
16:00 +24°C° 0.1 mm 0 m/s 696 mmHg 75%
17:00 +23°C° 0 mm 0 m/s 696 mmHg 81%
18:00 +22°C° 0 mm 0 m/s 696 mmHg 87%
19:00 +23°C° 0 mm 1 m/s 696 mmHg 93%
20:00 +23°C° 0 mm 1 m/s 697 mmHg 95%
21:00 +22°C° 0 mm 1 m/s 697 mmHg 97%
22:00 +22°C° 0 mm 1 m/s 697 mmHg 98%
23:00 +22°C° 0 mm 1 m/s 697 mmHg 99%

17 Mai, Lundi

Heure Température Précipitation Vent Pression Humidité
00:00 +21°C° 0 mm 1 m/s 697 mmHg 99%
01:00 +19°C° 0 mm 0 m/s 697 mmHg 99%
02:00 +19°C° 0 mm 0 m/s 697 mmHg 98%
03:00 +19°C° 0 mm 0 m/s 697 mmHg 98%
04:00 +19°C° 0 mm 0 m/s 697 mmHg 98%
05:00 +19°C° 0.1 mm 0 m/s 697 mmHg 97%
06:00 +20°C° 0.1 mm 0 m/s 697 mmHg 96%
07:00 +20°C° 0.1 mm 0 m/s 698 mmHg 96%
08:00 +22°C° 0 mm 0 m/s 698 mmHg 86%
09:00 +24°C° 0 mm 0 m/s 699 mmHg 76%
10:00 +26°C° 0 mm 0 m/s 699 mmHg 67%
11:00 +27°C° 0 mm 0 m/s 699 mmHg 62%
12:00 +28°C° 0 mm 0 m/s 698 mmHg 57%
13:00 +30°C° 0 mm 0 m/s 698 mmHg 53%
14:00 +31°C° 0.1 mm 1 m/s 697 mmHg 56%
15:00 +30°C° 0.1 mm 1 m/s 697 mmHg 60%
16:00 +29°C° 0.1 mm 1 m/s 696 mmHg 64%
17:00 +27°C° 1.1 mm 1 m/s 696 mmHg 75%
18:00 +25°C° 1.1 mm 1 m/s 696 mmHg 85%
19:00 +23°C° 1.1 mm 1 m/s 696 mmHg 96%
20:00 +23°C° 1.9 mm 1 m/s 697 mmHg 97%
21:00 +21°C° 1.9 mm 0 m/s 698 mmHg 98%
22:00 +21°C° 1.9 mm 0 m/s 698 mmHg 99%
23:00 +20°C° 1.1 mm 0 m/s 698 mmHg 99%

18 Mai, Mardi

Heure Température Précipitation Vent Pression Humidité
00:00 +20°C° 1.1 mm 0 m/s 698 mmHg 99%
01:00 +22°C° 1.1 mm 1 m/s 697 mmHg 99%
02:00 +22°C° 0 mm 1 m/s 697 mmHg 99%
03:00 +20°C° 0 mm 0 m/s 697 mmHg 99%
04:00 +20°C° 0 mm 0 m/s 697 mmHg 99%
05:00 +20°C° 0 mm 0 m/s 697 mmHg 99%
06:00 +20°C° 0 mm 0 m/s 698 mmHg 99%
07:00 +20°C° 0 mm 0 m/s 698 mmHg 99%
08:00 +22°C° 0 mm 0 m/s 699 mmHg 92%
09:00 +23°C° 0 mm 0 m/s 699 mmHg 86%
10:00 +24°C° 0 mm 0 m/s 700 mmHg 79%
11:00 +25°C° 0 mm 0 m/s 699 mmHg 74%
12:00 +26°C° 0 mm 0 m/s 699 mmHg 68%
13:00 +29°C° 0 mm 1 m/s 698 mmHg 62%
14:00 +28°C° 0.3 mm 1 m/s 698 mmHg 71%
15:00 +27°C° 0.3 mm 1 m/s 697 mmHg 79%
16:00 +26°C° 0.3 mm 1 m/s 697 mmHg 87%
17:00 +25°C° 0.8 mm 1 m/s 697 mmHg 90%
18:00 +24°C° 0.8 mm 1 m/s 697 mmHg 94%
19:00 +23°C° 0.8 mm 1 m/s 697 mmHg 98%
20:00 +23°C° 0.1 mm 1 m/s 697 mmHg 98%
21:00 +23°C° 0.1 mm 1 m/s 698 mmHg 98%
22:00 +23°C° 0.1 mm 1 m/s 698 mmHg 99%
23:00 +23°C° 0.3 mm 1 m/s 698 mmHg 99%

19 Mai, Mercredi

Heure Température Précipitation Vent Pression Humidité
00:00 +23°C° 0.3 mm 1 m/s 698 mmHg 99%
01:00 +22°C° 0.3 mm 1 m/s 698 mmHg 99%
02:00 +22°C° 0.5 mm 1 m/s 698 mmHg 99%
03:00 +20°C° 0.5 mm 0 m/s 698 mmHg 99%
04:00 +20°C° 0.5 mm 0 m/s 698 mmHg 99%
05:00 +20°C° 0.3 mm 0 m/s 698 mmHg 99%
06:00 +20°C° 0.3 mm 0 m/s 699 mmHg 99%
07:00 +21°C° 0.3 mm 0 m/s 699 mmHg 99%
08:00 +22°C° 0 mm 0 m/s 699 mmHg 91%
09:00 +25°C° 0 mm 1 m/s 700 mmHg 84%
10:00 +27°C° 0 mm 1 m/s 700 mmHg 77%
11:00 +28°C° 0 mm 1 m/s 699 mmHg 69%
12:00 +29°C° 0 mm 1 m/s 699 mmHg 62%
13:00 +30°C° 0 mm 1 m/s 698 mmHg 55%
14:00 +29°C° 0 mm 1 m/s 698 mmHg 62%
15:00 +28°C° 0 mm 1 m/s 698 mmHg 68%
16:00 +27°C° 0 mm 1 m/s 697 mmHg 75%
17:00 +26°C° 0 mm 1 m/s 697 mmHg 80%
18:00 +25°C° 0 mm 1 m/s 697 mmHg 85%
19:00 +24°C° 0 mm 1 m/s 698 mmHg 89%
20:00 +23°C° 0.2 mm 1 m/s 698 mmHg 91%
21:00 +23°C° 0.2 mm 1 m/s 698 mmHg 93%
22:00 +22°C° 0.2 mm 1 m/s 698 mmHg 95%
23:00 +20°C° 0.6 mm 0 m/s 698 mmHg 96%
Voir plus

Nous avons besoin de votre consentement

Meteoprog et ses fournisseurs de services peuvent stocker et accéder à des données personnelles telles que des cookies, des identifiants d'appareils ou d'autres technologies similaires sur votre appareil et traiter ces données pour personnaliser le contenu et les publicités, ainsi que pour fournir des fonctionnalités de médias sociaux et analyser le trafic.

  • Stocker et/ou accéder à des informations sur votre appareil

    Des cookies, des identifiants d'appareils ou d'autres informations peuvent être stockés ou accessibles sur votre appareil aux fins indiquées ci-dessus.

  • Annonces et contenus personnalisés, mesure des annonces et des contenus, connaissance de l'audience et développement de produits

    Les annonces et le contenu peuvent être personnalisés en fonction d'un profil. D'autres données peuvent être ajoutées pour mieux personnaliser les annonces et le contenu. Les performances des publicités et du contenu peuvent être mesurées. Il est possible d'obtenir des informations sur le public qui a vu les publicités et le contenu. Ces données peuvent être utilisées pour développer ou améliorer l'expérience de l'utilisateur, les systèmes et les logiciels.

En cliquant sur "J'accepte", vous autorisez l'utilisation de cookies, des identifiants d'appareils, des balises web ou d'autres technologies similaires. Vos paramètres peuvent être modifiés dans le navigateur de votre appareil.

Dans certains cas, des intérêts légitimes peuvent être invoqués plutôt qu'un consentement. Vous pouvez en savoir plus à ce sujet dans notre Politique de confidentialité et de cookies.